Weather History for Resolute CS, NT

Change the Weather History Date:

Saturday, August 10, 2013

  Actual Average Record
Temperature  
Mean Temperature 44 °F -  
Max Temperature 50 °F - - ()
Min Temperature 37 °F - - ()
Degree Days  
Heating Degree Days 22    
Moisture  
Dew Point 34 °F    
Average Humidity 66    
Maximum Humidity 73    
Minimum Humidity 51    
Precipitation  
Precipitation 0.00 in - - ()
Sea Level Pressure  
Sea Level Pressure 29.97 in    
Wind  
Wind Speed 10 mph ()    
Max Wind Speed 15 mph    
Max Gust Speed 21 mph    
T = Trace of Precipitation, MM = Missing Value Source: Averaged Metar Reports

Daily Weather History Graph

Daily Weather History Graph

Search for Another Location

Airport:

Trip Planner

Search our weather history database for the weather conditions in past years. The results will help you decide how hot, cold, wet, or windy it might be!

Date:

Astronomy

Aug. 10, 2013 Rise Set
Actual Time 12:57 AM MDT 11:52 PM MDT
Civil Twilight Sun does not rise Sun does not rise
Nautical Twilight Sun does not rise Sun does not rise
Astronomical Twilight Sun does not rise Sun does not rise
Moon 9:58 AM MDT (8/10) 7:59 PM MDT (8/10)
Length of Visible Light 24h 00m
Length of Day
22h 54m
Waxing Crescent, 14% of the Moon is Illuminated
Aug 10
Waxing Crescent
Aug 14
First Quarter
Aug 20
Full
Aug 28
Last Quarter
Sep 5
New

Hourly Weather History & Observations

Time (MDT) Temp. Windchill Dew Point Humidity Pressure Visibility Wind Dir Wind Speed Gust Speed Precip Events Conditions
12:00 AM 40 °F - 28 °F 51% 30.01 in - SE 10.4 mph - -  
12:00 AM 39.7 °F 33.2 °F 28.2 °F 63% 30.01 in - SE 10.4 mph - N/A   Unknown
1:00 AM 39.6 °F 33.0 °F 29.3 °F 67% 30.00 in - SE 10.4 mph - N/A   Unknown
2:00 AM 38.3 °F 30.9 °F 30.2 °F 73% 30.00 in - SE 11.5 mph - N/A   Unknown
3:00 AM 38.1 °F 29.8 °F 30.0 °F 73% 30.00 in - SE 13.8 mph - N/A   Unknown
4:00 AM 38.8 °F 31.6 °F 30.4 °F 72% 30.00 in - SE 11.5 mph - N/A   Unknown
5:00 AM 40.5 °F 32.8 °F 31.5 °F 70% 29.99 in - ESE 13.8 mph - N/A   Unknown
6:00 AM 42 °F - 33 °F 59% 29.99 in - SSE 12.7 mph - -  
6:00 AM 41.7 °F 34.8 °F 31.5 °F 67% 29.99 in - SSE 12.7 mph - N/A   Unknown
7:00 AM 41.9 °F 35.4 °F 32.9 °F 70% 29.99 in - SE 11.5 mph - N/A   Unknown
8:00 AM 42.8 °F 36.6 °F 33.4 °F 70% 29.98 in - SE 11.5 mph - N/A   Unknown
9:00 AM 45.1 °F 39.5 °F 36.1 °F 71% 29.98 in - SSE 11.5 mph - N/A   Unknown
10:00 AM 47.7 °F - 38.1 °F 70% 29.97 in - South 12.7 mph - N/A   Unknown
11:00 AM 49.5 °F - 39.9 °F 70% 29.97 in - SSE 10.4 mph - N/A   Unknown
12:00 PM 47 °F - 36 °F 56% 29.97 in - SE 10.4 mph - -  
12:00 PM 46.6 °F - 36.3 °F 67% 29.97 in - SE 10.4 mph - N/A   Unknown
1:00 PM 50.0 °F - 39.2 °F 66% 29.97 in - South 10.4 mph - N/A   Unknown
2:00 PM 49.8 °F - 39.2 °F 67% 29.97 in - South 11.5 mph - N/A   Unknown
3:00 PM 49.6 °F - 39.0 °F 67% 29.96 in - SSE 13.8 mph - N/A   Unknown
4:00 PM 48.6 °F - 38.5 °F 68% 29.96 in - ESE 11.5 mph - N/A   Unknown
5:00 PM 48.0 °F - 36.7 °F 65% 29.96 in - SE 11.5 mph - N/A   Unknown
6:00 PM 47 °F - 36 °F 57% 29.95 in - SE 13.8 mph - -  
6:00 PM 46.8 °F - 36.5 °F 67% 29.95 in - SE 13.8 mph 20.7 mph N/A   Unknown
7:00 PM 48.2 °F - 36.7 °F 64% 29.95 in - SE 13.8 mph 19.6 mph N/A   Unknown
8:00 PM 46.0 °F 39.6 °F 34.7 °F 65% 29.93 in - SE 15.0 mph - N/A   Unknown
9:00 PM 45.9 °F 40.4 °F 33.8 °F 63% 29.93 in - SE 11.5 mph - N/A   Unknown
10:00 PM 44.2 °F 38.4 °F 33.8 °F 67% 29.91 in - South 11.5 mph - N/A   Unknown
11:00 PM 44.2 °F 40.3 °F 31.6 °F 61% 29.92 in - SE 6.9 mph - N/A   Unknown